This demonstration page uses our WeatherBlox Daily Observations layout. Learn more.

Left ArrowRight Arrow

Hourly Observations for September 16, 2016

Temp ( °F °C ) Dew Point ( °F °C ) Humidity (%) Winds ( mph kmh ) Pressure ( in mb ) Visibility ( mi km ) Precip ( " mm )
12:51 am 00:51 Clear 65 18.3 45 7.2 49 49 S 3 6 29.84 1011 10 16.0934 0 0
1:51 am 01:51 Clear 61 16.1 48 8.9 63 63 SE 3 6 29.85 1011 10 16.0934 0 0
2:51 am 02:51 Clear 59 15 48 8.9 67 67 Calm 29.85 1011 10 16.0934 0 0
3:51 am 03:51 Clear 59 15 47 8.3 64 64 Calm 29.85 1011 10 16.0934 0 0
4:51 am 04:51 Clear 57 13.9 48 8.9 72 72 SE 6 9 29.87 1011 10 16.0934 0 0
5:51 am 05:51 Clear 57 13.9 47 8.3 69 69 NE 3 6 29.88 1012 10 16.0934 0 0
6:51 am 06:51 Sunny 60 15.6 49 9.4 67 67 Calm 29.9 1013 10 16.0934 0 0
7:51 am 07:51 Sunny 65 18.3 46 7.8 51 51 W 3 6 29.91 1013 10 16.0934 0 0
8:51 am 08:51 Sunny 70 21.1 46 7.8 42 42 WNW 5 7 29.92 1013 10 16.0934 0 0
9:51 am 09:51 Sunny 76 24.4 45 7.2 33 33 Calm 29.91 1013 10 16.0934 0 0
10:51 am 10:51 Sunny 79 26.1 41 5 26 26 W 6 9 29.9 1013 10 16.0934 0 0
11:51 am 11:51 Sunny 82 27.8 38 3.3 21 21 Calm 29.88 1012 10 16.0934 0 0
12:51 pm 12:51 Sunny 85 29.4 35 1.7 17 17 W 7 11 29.86 1011 10 16.0934 0 0
1:51 pm 13:51 Sunny 87 30.6 33 0.6 14 14 WNW 8 13 29.85 1011 10 16.0934 0 0
2:51 pm 14:51 Sunny 87 30.6 34 1.1 15 15 VRB 5 7 29.83 1010 10 16.0934 0 0
3:51 pm 15:51 Sunny 89 31.7 34 1.1 14 14 Calm 29.82 1010 10 16.0934 0 0
4:51 pm 16:51 Sunny 86 30 34 1.1 15 15 SSW 5 7 29.82 1010 10 16.0934 0 0
5:51 pm 17:51 Sunny 85 29.4 38 3.3 19 19 Calm 29.82 1010 10 16.0934 0 0
6:51 pm 18:51 Clear 80 26.7 43 6.1 27 27 Calm 29.83 1010 10 16.0934 0 0
7:51 pm 19:51 Clear 72 22.2 48 8.9 43 43 N 3 6 29.85 1011 10 16.0934 0 0
8:51 pm 20:51 Clear 72 22.2 45 7.2 38 38 NW 5 7 29.85 1011 10 16.0934 0 0.0254
9:51 pm 21:51 Clear 68 20 45 7.2 44 44 VRB 6 9 29.86 1011 10 16.0934 0 0.0254
10:51 pm 22:51 Clear 67 19.4 47 8.3 49 49 SSE 3 6 29.86 1011 10 16.0934 0 0
11:51 pm 23:51 Clear 64 17.8 46 7.8 52 52 ENE 3 6 29.87 1012 10 16.0934 0 0

Powered by AerisWeather